RH
37 40 43 39 34 32 31 30 28 26 25 25 25 25 25 26 26 27 27 27 27 28 28 27 27 29 29 28 29 28 27 27 25 24 22 22 23 22 20 22 23 22 23 25 30 36 39 41 47 51 53 58 60 59 59 57 59 68 76 78 78 75 72
38 41 43 40 33 31 31 29 27 26 24 24 25 25 25 25 26 26 26 27 27 27 28 26 26 28 27 26 28 27 26 26 21 18 18 20 23 24 24 22 18 17 20 24 27 30 34 36 38 41 44 49 53 56 57 57 57 61 68 76 79 78 75
40 42 43 40 33 30 30 28 26 25 24 24 24 24 25 25 25 25 25 27 26 26 27 26 26 27 25 25 27 25 24 24 20 16 16 16 16 20 22 20 18 19 23 26 26 27 31 34 34 36 39 43 47 48 49 52 58 60 62 67 73 77 77
41 41 43 41 33 29 29 27 25 25 23 23 23 24 23 23 23 24 24 25 25 24 25 25 25 25 24 24 24 23 23 22 19 17 17 16 15 15 15 17 22 26 26 26 25 26 27 28 29 33 36 39 41 41 40 43 49 54 58 59 61 66 71
43 44 45 44 37 32 30 29 26 24 23 22 22 23 22 21 22 23 23 24 24 24 24 25 24 24 24 24 21 19 20 21 22 23 23 22 20 21 20 20 23 26 27 27 25 26 26 26 28 30 31 32 33 33 33 36 38 42 48 54 57 59 62
46 47 48 46 41 36 33 31 27 23 22 22 21 22 21 21 21 21 22 23 23 23 24 24 24 24 24 20 16 15 18 22 25 26 26 25 26 27 27 26 24 24 26 28 26 26 27 26 25 25 25 25 25 28 31 35 38 37 36 41 49 55 59
48 48 48 46 42 40 39 35 30 26 24 22 22 23 22 21 20 19 21 22 23 24 24 24 25 24 22 19 16 17 19 24 26 25 26 27 28 28 28 28 28 27 27 27 27 27 26 24 22 23 25 26 28 33 37 40 45 43 37 36 39 45 56
49 47 46 43 39 41 42 37 31 30 26 23 23 24 23 22 20 20 21 22 24 24 24 25 24 21 19 20 22 23 24 27 27 26 27 28 27 27 28 28 28 28 28 28 27 25 22 23 24 26 29 30 31 34 37 39 41 43 43 41 37 37 44
47 44 43 42 39 38 38 31 27 27 26 24 24 24 24 24 23 22 23 24 25 25 25 26 22 19 20 24 25 26 27 28 27 27 28 27 27 27 27 27 27 27 27 28 28 25 24 26 28 29 29 28 25 27 33 37 39 41 44 44 39 34 36
45 43 42 41 38 35 32 29 27 27 28 27 25 24 24 25 24 24 24 25 25 25 26 26 23 23 26 26 25 27 27 27 26 27 27 27 27 27 27 27 27 27 27 28 29 29 29 28 27 27 26 23 22 23 29 36 39 40 42 44 41 34 32
42 41 38 34 33 31 29 29 29 29 30 28 25 25 26 26 25 25 25 26 26 27 27 26 26 27 28 26 25 26 26 26 27 27 26 27 27 27 27 27 27 28 28 28 29 29 29 28 27 26 25 23 23 22 25 31 36 39 40 41 40 38 36
41 40 38 33 30 29 29 29 29 30 30 28 27 27 27 27 27 26 27 27 27 28 28 28 29 29 27 26 27 27 26 27 27 27 27 27 27 27 27 26 27 27 27 28 29 28 28 28 28 27 27 26 24 23 23 27 33 40 44 41 35 35 40
41 42 41 35 30 29 30 29 30 31 32 29 29 30 28 27 27 27 28 29 29 30 30 30 30 30 28 28 27 27 27 27 26 27 28 27 27 27 26 26 26 27 27 28 28 27 27 27 28 28 28 28 27 26 25 26 30 36 43 45 38 33 34
43 43 41 35 32 33 32 30 31 33 34 32 32 31 29 28 27 27 29 30 31 31 32 31 30 30 29 28 27 27 26 27 27 27 28 28 27 26 27 27 26 27 28 28 28 28 28 29 29 29 29 29 28 28 27 27 31 35 38 42 41 35 32
44 43 40 38 37 36 33 32 34 36 36 34 33 32 29 28 28 28 29 31 31 32 32 31 29 29 28 27 26 27 26 27 27 28 28 28 28 27 26 26 26 27 28 28 28 29 29 30 30 30 30 29 30 31 32 31 36 42 43 41 39 34 31
41 43 44 44 45 43 37 36 38 37 36 34 33 31 29 28 28 29 30 30 32 33 32 30 29 29 28 27 26 26 26 27 27 28 29 28 28 27 26 26 26 27 27 28 29 29 29 30 31 31 32 32 33 35 37 38 40 45 47 45 43 37 31
39 43 46 48 48 45 40 38 38 37 35 33 32 30 28 28 29 30 30 32 33 32 30 30 30 29 28 27 26 26 26 27 28 28 28 29 29 27 26 26 26 26 28 28 29 30 30 31 32 33 33 34 36 38 40 41 42 45 47 48 48 44 36
41 44 46 47 47 43 38 37 38 37 35 32 30 29 28 28 29 30 31 33 33 31 31 33 33 32 29 28 27 26 27 27 28 28 28 29 29 28 27 26 26 26 27 29 30 30 30 31 32 34 35 36 38 40 43 44 44 47 49 49 50 49 43
43 45 45 45 44 40 37 37 37 37 34 30 29 28 28 28 29 31 33 34 33 32 32 34 35 33 31 28 27 27 27 28 28 28 28 29 28 28 27 27 27 27 27 28 30 30 29 30 33 35 39 41 42 43 45 46 46 48 50 50 51 51 47
40 44 45 43 40 38 37 37 37 38 33 29 28 27 28 29 31 33 34 34 34 34 35 35 35 35 31 29 27 27 27 28 28 29 29 29 29 28 27 27 28 28 28 28 29 30 30 31 34 38 42 44 45 45 46 47 47 47 48 51 52 53 51
40 43 43 41 39 37 36 35 36 36 31 28 28 29 29 30 32 34 35 34 34 36 37 36 36 36 32 28 28 28 27 28 29 29 29 30 30 29 27 27 28 28 30 30 31 32 32 33 35 39 43 45 46 45 45 46 47 47 47 49 52 54 53
45 43 40 38 39 39 38 35 33 31 29 28 29 30 30 32 33 35 37 35 35 37 38 36 36 35 32 29 27 27 27 28 28 29 29 30 30 29 27 28 29 29 31 32 33 34 35 36 39 41 44 47 47 47 46 45 46 47 48 49 51 53 51
46 44 40 40 39 37 37 37 34 30 29 29 30 31 32 33 34 36 37 36 37 38 37 36 35 34 32 30 28 28 28 27 28 29 29 30 31 30 29 28 28 29 32 33 34 35 36 38 41 43 46 48 49 49 48 46 46 47 48 48 51 53 52
45 43 41 41 39 36 38 39 35 32 31 30 30 31 34 34 34 34 35 35 37 39 38 36 35 34 34 32 30 30 29 28 29 29 30 30 30 31 30 28 26 27 32 34 35 36 38 41 43 44 46 48 49 49 46 46 46 47 48 49 50 53 54
44 41 41 41 40 40 39 37 34 33 32 30 30 31 33 34 33 34 34 35 38 39 39 37 35 35 35 33 31 31 29 28 29 29 30 31 31 31 31 30 27 26 29 33 35 36 39 42 44 46 46 47 48 46 43 44 45 45 47 51 53 54 55
41 39 39 39 39 37 35 34 34 35 32 30 31 32 33 33 33 34 35 37 39 39 38 37 36 36 35 33 32 31 30 29 30 31 31 32 31 30 30 30 29 27 29 31 33 36 39 41 43 46 47 47 48 46 43 44 46 45 47 51 54 57 58
38 38 38 38 37 35 35 37 39 39 36 33 32 32 33 34 34 35 37 39 39 38 37 36 36 35 35 33 32 31 30 30 32 32 32 33 33 32 31 30 29 27 28 30 33 38 42 42 43 46 47 48 50 50 46 45 49 50 49 50 52 54 56
38 38 37 37 36 37 40 44 45 45 43 39 34 33 34 36 36 37 39 40 39 38 37 37 36 36 35 34 32 30 30 32 33 33 33 33 33 33 31 30 30 28 28 28 32 39 44 43 42 45 48 48 50 52 49 49 54 55 52 53 53 53 54
36 34 33 34 36 41 45 45 45 43 41 36 34 34 36 37 38 39 40 39 39 39 39 37 37 36 35 34 33 32 32 32 32 33 33 33 33 32 31 31 31 30 29 28 31 37 43 42 41 44 47 48 49 50 50 53 59 60 56 54 54 54 55
33 31 32 36 41 43 43 41 39 36 34 32 33 35 37 39 40 40 39 38 38 38 38 38 38 38 38 36 34 32 32 32 32 33 33 33 32 31 31 30 30 29 30 29 30 34 39 41 41 43 47 48 48 50 51 54 60 61 59 56 56 55 55
35 35 36 39 41 41 38 36 34 32 31 33 35 37 38 39 40 39 39 38 37 37 39 40 40 40 39 37 34 32 33 33 33 33 32 31 30 29 28 29 29 29 30 29 29 31 36 40 42 45 47 49 50 50 52 56 61 63 61 59 58 58 57
37 36 35 35 35 34 33 33 33 34 35 38 39 40 39 39 39 40 39 37 36 38 41 41 41 41 39 36 34 33 34 33 33 33 32 30 28 27 28 28 29 30 31 31 31 32 34 39 43 45 47 50 51 52 54 58 62 62 62 62 62 63 62
37 35 33 32 31 32 34 36 38 39 40 42 42 41 40 39 39 39 39 38 40 42 42 41 42 41 39 35 34 35 35 34 33 33 31 30 28 28 29 30 31 32 33 33 33 33 35 38 41 42 43 46 49 52 56 60 63 62 63 66 67 67 65
35 33 32 32 33 36 39 40 41 42 43 43 42 41 39 39 39 39 40 42 42 42 41 41 42 41 38 35 35 35 35 35 33 33 31 30 30 31 32 33 34 35 35 34 35 35 34 36 37 37 37 40 45 51 57 63 66 64 63 67 70 70 68
31 31 32 35 38 40 42 42 42 43 42 41 40 39 39 39 39 40 41 42 41 40 41 40 39 37 36 36 36 36 36 35 33 33 32 31 31 32 33 35 35 36 35 34 35 35 35 34 35 36 36 40 46 53 58 63 65 65 64 65 68 69 69
32 33 36 39 41 41 42 43 43 42 41 40 40 39 40 40 40 40 40 40 40 41 40 38 35 35 37 36 35 36 36 35 34 33 33 33 33 33 34 34 35 35 34 32 33 34 34 34 35 36 38 42 49 55 60 62 63 61 60 60 60 64 66
35 37 38 41 42 43 43 44 43 42 41 40 41 41 41 42 41 40 40 40 42 42 40 37 35 35 36 36 35 35 36 35 35 35 34 34 34 34 34 34 34 34 34 34 34 34 34 35 36 38 42 49 54 58 61 63 61 59 57 56 56 57 59
36 38 40 42 43 44 43 42 41 40 39 41 42 42 41 41 41 40 41 42 43 42 41 38 36 34 33 35 36 35 35 35 35 36 37 36 35 35 36 36 35 35 35 37 38 38 37 38 40 45 53 60 62 62 63 63 61 59 57 56 56 56 55